Main page
METAR-TAF:

METAR-TAF

Airports :

Madrid-Getafe, Spain

Getafe Air Base

latitude: 40-18N, longitude: 003-43W, elevation: 620 m

Current weather observation

The report was made 15 minutes ago, at 07:00 UTC
Wind 4 kt from the North/Northeast
Temperature 1°C
Humidity 75%
Pressure 1024 hPa
Visibility 10 km or more
no clouds below 1500 m and no cumulonimbus

METAR: LEGT 180700Z 03004KT CAVOK 01/M03 Q1024

Time: 08:15 (07:15 UTC)

Forecast

The report was made 2 hours and 15 minutes ago, at 05:00 UTC
Forecast valid from 18 at 06 UTC to 18 at 15 UTC
Wind 5 kt from the Northeast
Visibility 10 km or more
no clouds below 1500 m and no cumulonimbus

TAF: LEGT 180500Z 1806/1815 04005KT CAVOK

Weather observations and forecasts of more than 4000 airports (METAR and TAF reports).

The available stations are represented by yellow and red dots on the map.

Hover mouse over dot to see the name of the station.

Then click to see weather observations and forecasts.

To change the map : click on the green buttons with a black cross to zoom in, on the green button with a dash to zoom out, or on the green arrows for adjacent maps.


METAR-TAF: